QPF
0.00 0.00 0.00 0.00 0.00 0.00 0.00 0.00 0.00 0.00 0.00 0.00 0.00 0.00 0.00 0.01 0.01 0.00 0.00 0.00 0.00 0.00
0.00 0.00 0.00 0.00 0.00 0.00 0.00 0.00 0.00 0.00 0.00 0.00 0.00 0.00 0.00 0.00 0.00 0.00 0.00 0.00 0.00 0.00
0.00 0.00 0.00 0.00 0.00 0.00 0.00 0.00 0.00 0.00 0.00 0.00 0.00 0.00 0.00 0.00 0.00 0.00 0.00 0.00 0.00 0.00
0.00 0.00 0.00 0.00 0.00 0.00 0.00 0.00 0.00 0.00 0.00 0.00 0.00 0.00 0.00 0.00 0.00 0.00 0.00 0.00 0.00 0.00
0.00 0.00 0.00 0.00 0.00 0.00 0.00 0.00 0.00 0.00 0.00 0.00 0.00 0.00 0.00 0.01 0.00 0.00 0.00 0.00 0.00 0.00
0.00 0.00 0.00 0.00 0.00 0.00 0.00 0.00 0.00 0.00 0.00 0.00 0.00 0.00 0.01 0.01 0.03 0.00 0.00 0.00 0.00 0.00
0.00 0.00 0.00 0.00 0.00 0.00 0.00 0.00 0.00 0.00 0.00 0.00 0.01 0.08 0.08 0.02 0.02 0.00 0.00 0.00 0.00 0.00
0.00 0.00 0.00 0.00 0.00 0.00 0.00 0.00 0.00 0.00 0.00 0.00 0.00 0.02 0.02 0.00 0.00 0.00 0.00 0.05 0.06 0.00
0.00 0.00 0.00 0.00 0.00 0.00 0.00 0.00 0.00 0.00 0.00 0.00 0.00 0.00 0.00 0.00 0.00 0.01 0.00 0.03 0.02 0.02
0.00 0.00 0.00 0.00 0.00 0.00 0.00 0.00 0.00 0.00 0.00 0.00 0.00 0.04 0.05 0.01 0.00 0.00 0.00 0.01 0.03 0.01
0.00 0.00 0.00 0.00 0.00 0.00 0.00 0.00 0.00 0.00 0.00 0.00 0.00 0.01 0.07 0.08 0.00 0.00 0.00 0.02 0.00 0.00
0.00 0.00 0.00 0.00 0.00 0.00 0.00 0.00 0.00 0.00 0.00 0.00 0.00 0.00 0.02 0.01 0.00 0.00 0.00 0.00 0.00 0.00
0.00 0.00 0.00 0.00 0.00 0.00 0.00 0.00 0.00 0.00 0.00 0.00 0.00 0.00 0.00 0.00 0.00 0.00 0.00 0.00 0.00 0.00
0.00 0.00 0.00 0.00 0.00 0.00 0.00 0.00 0.00 0.00 0.00 0.00 0.00 0.00 0.00 0.00 0.00 0.00 0.00 0.00 0.00 0.00
MSLP
1001.30 1001.99 1002.62 1003.24 1004.05 1004.66 1005.13 1005.59 1005.82 1006.09 1006.29 1006.58 1006.86 1007.08 1007.30 1007.58 1007.72 1007.95 1008.15 1008.19 1008.39 1008.55
1001.73 1002.13 1002.81 1003.54 1004.01 1004.60 1005.04 1005.42 1005.67 1005.83 1006.16 1006.47 1006.73 1006.97 1007.20 1007.39 1007.49 1007.60 1007.64 1007.66 1007.85 1008.19
1002.17 1002.57 1003.13 1003.69 1004.37 1004.75 1005.14 1005.37 1005.59 1005.92 1006.23 1006.51 1006.66 1006.73 1006.92 1007.14 1007.23 1007.37 1007.28 1007.32 1007.62 1007.89
1002.77 1003.21 1003.58 1004.06 1004.49 1004.88 1005.11 1005.35 1005.66 1005.93 1006.19 1006.42 1006.37 1006.46 1006.66 1006.85 1006.91 1006.94 1007.02 1007.11 1007.30 1007.38
1003.17 1003.56 1003.96 1004.40 1004.67 1004.87 1005.19 1005.48 1005.71 1005.87 1006.13 1006.14 1006.16 1006.29 1006.45 1006.50 1006.51 1006.65 1006.70 1006.84 1007.04 1007.21
1003.46 1003.83 1004.19 1004.54 1004.73 1004.98 1005.30 1005.52 1005.73 1005.80 1005.90 1006.14 1006.27 1006.27 1006.22 1006.30 1006.47 1006.35 1006.37 1006.58 1006.79 1006.98
1003.59 1003.88 1004.22 1004.56 1004.85 1005.09 1005.24 1005.51 1005.67 1005.79 1006.10 1006.34 1006.33 1006.35 1006.21 1006.25 1006.22 1006.37 1006.46 1006.43 1006.40 1006.75
1003.63 1003.88 1004.26 1004.67 1004.92 1005.05 1005.26 1005.51 1005.68 1006.11 1006.38 1006.53 1006.60 1006.73 1006.56 1006.36 1006.36 1006.49 1006.61 1006.57 1006.56 1006.92
1003.65 1004.08 1004.30 1004.63 1004.97 1005.17 1005.42 1005.47 1005.88 1006.38 1006.54 1006.82 1006.98 1006.97 1006.83 1006.48 1006.53 1006.62 1006.91 1006.99 1007.05 1007.46
1003.68 1004.09 1004.28 1004.61 1004.97 1005.27 1005.47 1005.58 1006.23 1006.68 1006.83 1007.10 1007.17 1007.07 1006.93 1006.78 1006.79 1006.90 1007.18 1007.41 1007.65 1008.01
1003.62 1003.95 1004.32 1004.67 1005.08 1005.41 1005.56 1005.91 1006.49 1006.83 1007.06 1007.18 1007.29 1007.20 1007.07 1007.06 1007.24 1007.32 1007.54 1007.75 1008.10 1008.49
1003.55 1003.92 1004.36 1004.82 1005.32 1005.62 1005.85 1006.26 1006.72 1006.94 1007.23 1007.29 1007.34 1007.35 1007.24 1007.26 1007.56 1007.75 1008.10 1008.38 1008.66 1009.00
1003.54 1003.94 1004.43 1004.83 1005.43 1005.69 1005.94 1006.38 1006.89 1007.20 1007.36 1007.47 1007.52 1007.60 1007.60 1007.66 1007.87 1008.15 1008.60 1009.07 1009.37 1009.60
1003.57 1003.95 1004.40 1004.90 1005.41 1005.73 1006.04 1006.56 1007.06 1007.39 1007.63 1007.68 1007.74 1007.97 1007.99 1008.08 1008.27 1008.50 1008.98 1009.49 1009.97 1010.41
Thickness
5711 5703 5698 5691 5683 5676 5670 5666 5661 5656 5653 5649 5643 5639 5635 5630 5624 5618 5614 5612 5608 5607
5703 5699 5692 5684 5678 5672 5667 5662 5658 5655 5651 5645 5640 5637 5633 5628 5624 5620 5619 5616 5614 5610
5695 5690 5684 5678 5672 5667 5662 5659 5655 5651 5645 5640 5638 5636 5633 5628 5625 5622 5621 5619 5617 5614
5685 5680 5676 5671 5666 5662 5659 5655 5650 5646 5642 5639 5638 5636 5634 5629 5627 5625 5623 5621 5620 5620
5678 5673 5668 5663 5660 5658 5654 5651 5647 5645 5641 5640 5638 5637 5633 5631 5628 5626 5625 5624 5623 5622
5671 5666 5663 5659 5657 5654 5651 5649 5645 5644 5642 5638 5637 5635 5633 5631 5628 5628 5627 5626 5625 5624
5667 5664 5659 5656 5653 5651 5649 5646 5644 5643 5640 5637 5636 5633 5634 5631 5629 5627 5626 5626 5627 5626
5665 5662 5657 5653 5650 5649 5647 5644 5643 5640 5637 5635 5633 5630 5631 5631 5629 5626 5625 5626 5627 5625
5662 5657 5655 5652 5648 5646 5644 5644 5641 5638 5636 5634 5630 5627 5627 5631 5629 5628 5624 5624 5625 5621
5660 5656 5654 5651 5648 5645 5643 5642 5638 5635 5635 5631 5630 5626 5629 5630 5630 5628 5625 5623 5621 5619
5661 5658 5655 5651 5645 5642 5642 5640 5635 5634 5633 5632 5631 5627 5630 5630 5629 5627 5625 5623 5620 5617
5662 5658 5653 5648 5642 5639 5639 5636 5634 5634 5633 5633 5632 5629 5631 5633 5629 5627 5624 5623 5622 5618
5663 5657 5652 5647 5641 5639 5638 5636 5635 5634 5634 5632 5633 5631 5632 5632 5631 5628 5624 5622 5621 5620
5664 5658 5654 5648 5643 5640 5639 5637 5635 5634 5633 5633 5634 5634 5633 5633 5632 5630 5627 5625 5623 5621